IRIDE FM5
导读
IRIDE FM5是意大利IRIDE地球观测星座计划中的一颗卫星,于2025年11月28日由意大利发射升空,该项目由意大利政府主导,欧洲空间局与意大利航天局协作推进。卫星配备先进光学传感器,可全天候、全气象条件对地观测,服务地面运动监测、水资源与海岸带管理、应急响应与国家安全等领域,为意大利公共决策提供空间数据支撑,助力全球可持续发展。
Basic Information
目录编号:
66699
目录名称:
IRIDE-MS1-EAG2-5
国际标识:
2025-276AK
轨道中心:
EARTH
卫星名称:
IRIDE FM5
卫星全名:
IRIDE FM5
卫星状态:
在轨 (已飞行281 天)
发射日期:
2025-11-28 UTC
国别 :
星等 :
--
Orbit Information
| 数据来源 | 国际轨道数据 |
| 星历时间: | 2026-09-04T19:36:33+0800 1天前 查看轨道信息 |
| 半长轴: | 6880.76km |
| 偏心率: | 0.0005542 |
| 轨道倾角: | 97.414° |
| 近地点辐角 | 92.226° |
| 升交点赤经 | 319.800° |
| 平近点角 | 267.962° |
| 近地点: | 498.809km |
| 远地点: | 506.437km |
| 周期: | 94.670分钟 |
| 每日圈数: | 15.210665 |
Detailed Information
使用方式:
暂无
2D Orbit Map
3D Orbit Map
Orbit Altitude Analysis Chart
Orbit Inclination Analysis Chart
Orbit Comprehensive Analysis Chart
View Comprehensive ChartConjunction Data List
| Event ID | Objects | TCA | Miss Dist (km) | Collision Risk Probability | Collision Risk Index (CRI) | Action |
|---|---|---|---|---|---|---|
| CDM_260906-180304-793206-669926 |
CAS500-1
(47932)
IRIDE-MS1-EAG2-5
(66699) | 2026-09-06T 18:03:21+0000 |
1.246 km
极远距离 | 1.280018E-5 中风险 | 0.57 | |
| CDM_260901-000606-669906-840924 |
IRIDE-MS1-EAG2-5
(66699)
LPNTSAT-002
(68409) | 2026-09-01T 00:06:53+0000 |
2.672 km
极远距离 | 1.58266E-6 低风险 | 0.39 |

